Regional Weather Roundup
Issued by NWS

Home | Current Version | Previous Version | Text Only | Print | Product List | Glossary Off
Versions: 1 2 3 4 5 6 7 8 9 10 11 12 13 14 15 16 17 18 19 20 21 22 23 24 25 26 27 28 29 30 31 32 33 34 35 36 37 38 39 40 41 42 43 44 45 46 47 48 49 50

599
ASUS43 KMKX 240911
RWRWI

WISCONSIN REGIONAL WEATHER ROUNDUP
NATIONAL WEATHER SERVICE MILWAUKEE/SULLIVAN WI
400 AM CDT THU MAY 24 2018

NOTE: "FAIR" INDICATES FEW OR NO CLOUDS BELOW 12,000 FEET WITH NO
SIGNIFICANT WEATHER AND/OR OBSTRUCTIONS TO VISIBILITY.

WIZ001-002-006>008-014>016-023>028-241000-
NORTHWEST WISCONSIN

CITY           SKY/WX    TMP DP  RH WIND       PRES   REMARKS
SUPERIOR ARPT  HVY RAIN  53  53  99 S8        30.09R VSB 3/4
ASHLAND        MOCLDY    58  55  90 CALM      30.07F
HAYWARD        MOCLDY    65  61  87 CALM      30.08F
SIREN          RAIN      66  63  87 W5        30.09S
CUMBERLAND     MOCLDY    64  59  82 SE5       30.09S THUNDER
RICE LAKE      FAIR      65  62  88 SE6       30.10S
CHETEK         FAIR      61  61  99 E8        30.09F
LADYSMITH      FAIR      64  60  87 SE3       30.12F
EAU CLAIRE     FAIR      65  60  84 CALM      30.09R
MENOMONIE      FAIR      65  61  87 NE5       30.09R
NEW RICHMOND   FAIR      67  60  76 S9        30.07R
OSCEOLA        FAIR      68  62  80 SE5       30.08S
$$

WIZ003>005-009-010-017-018-241000-
NORTH CENTRAL WISCONSIN

CITY           SKY/WX    TMP DP  RH WIND       PRES   REMARKS
MANITOWISH WTR FAIR      55  55 100 CALM      30.13S
ARBOR VITAE    FAIR      59  57  92 CALM      30.14S
WOODRUFF       FAIR      59  57  92 CALM      30.14S
RHINELANDER    FOG       57  56  96 CALM      30.15S VSB 1
EAGLE RIVER    FOG       52  52 100 CALM      30.14F VSB 1/4
LAND O LAKES   FAIR      51  51  99 CALM      30.16S FOG
PHILLIPS       MOCLDY    64  62  91 S6        30.12S
TOMAHAWK       FAIR      54  53  96 CALM      30.15S FOG
MEDFORD        CLOUDY    61  59  92 S6        30.14S
MERRILL        FAIR      55  55 100 CALM      30.15S FOG
$$

WIZ029-030-035-036-043>047-241000-
CENTRAL WISCONSIN

CITY           SKY/WX    TMP DP  RH WIND       PRES   REMARKS
WAUSAU         MOCLDY    60  59  96 E6        30.13S
MOSINEE        MOCLDY    59  59 100 CALM      30.16R
MARSHFIELD     FAIR      61  59  93 SW6       30.13S
STEVENS POINT  CLOUDY    57  57 100 CALM      30.15S
WAUPACA        FAIR      59  59  98 CALM      30.15S
WAUTOMA        FAIR      57  55  93 CALM      30.15S
WISC RAPIDS    FAIR      59  58  96 CALM      30.15R
CAMP DOUGLAS   FAIR      57  57 100 SE3       30.13R
$$

WIZ011>013-019>022-031-037>040-048>050-241000-
NORTHEAST WISCONSIN

CITY           SKY/WX    TMP DP  RH WIND       PRES   REMARKS
ANTIGO         FAIR      56  56 100 CALM      30.16S
SHAWANO        FAIR      62  57  85 CALM      30.14S
OCONTO         FAIR      53  51  94 CALM      30.14R
STURGEON BAY   FAIR      61  52  72 S3        30.15R
GREEN BAY      FAIR      57  53  86 CALM      30.15R
MANITOWOC      FAIR      55  50  83 CALM      30.16S
APPLETON       FAIR      61  54  77 CALM      30.14S
CLINTONVILLE   FAIR      57  55  91 CALM      30.14S
OSHKOSH        FAIR      62  53  72 S8        30.14S
$$

WIZ032>034-041-042-053>061-241000-
SOUTHWEST WISCONSIN

CITY           SKY/WX    TMP DP  RH WIND       PRES   REMARKS
LA CROSSE      FAIR      66  62  87 S6        30.11R
SPARTA         FAIR      53  53 100 CALM      30.13S
VIROQUA        FAIR      66  60  81 S8        30.15R
BOSCOBEL       FOG       58  57  97 CALM      30.14R VSB 1/4
PRAIRIE DU CHI FAIR      62  59  90 CALM      30.13R
PLATTEVILLE    FAIR      64  60  84 SE5       30.16R
$$

WIZ056-057-062-063-064-067-068-241000-
SOUTH CENTRAL WISCONSIN

CITY           SKY/WX    TMP DP  RH WIND       PRES   REMARKS
REEDSBURG      FAIR      60  60 100 CALM      30.14R
BARABOO/DELLS  FAIR      63  57  81 S5        30.14S
LONE ROCK      FAIR      60  60 100 CALM      30.14R FOG
MINERAL POINT  FAIR      63  61  94 SE6       30.16R
MADISON        FAIR      60  56  86 CALM      30.15S
MIDDLETON      FAIR      59  56  90 CALM      30.17R
WATERTOWN      FAIR      56  55  93 CALM      30.16R
MONROE         FAIR      63  48  59 S7        30.16R
JANESVILLE     FAIR      59  50  72 CALM      30.16R
$$

WIZ051-052-058>065-066-070>072-241000-
SOUTHEAST WISCONSIN

CITY           SKY/WX    TMP DP  RH WIND       PRES   REMARKS
MILWAUKEE      FAIR      59  50  72 SW3       30.17S
WAUKESHA       FAIR      57  46  67 S5        30.18S
MILWAUKEE/TIMM FAIR      54  46  76 CALM      30.18S
RACINE         FAIR      54  50  86 SW3       30.18S
BURLINGTON     FAIR      52  51  97 CALM      30.17S
KENOSHA        FAIR      52  50  93 CALM      30.17S FOG
FOND DU LAC    FAIR      59  50  72 S6        30.15S
SHEBOYGAN      FAIR      55  49  80 CALM      30.15F
WEST BEND      FAIR      52  52 100 CALM      30.16F
JUNEAU         FAIR      60  50  69 CALM      30.17S
$$

LSZ147-162-241000-
LAKE SUPERIOR

STATION/POSITION TIME  TEMP    WIND        PRES    WAVE
                       AIR SEA DIR/SP/G            HT/PER
                 (UTC) (F)     (DEG/KT/KT) (MB)    (FT/S)
W MID LAKE BUOY  0850   40 36   70/  6/  8 1018.9S   0
DEVILS ISLAND    0900   48      90/  8/  9 1018.9F
SAXON HARBOR     0840   55      10/  2/  3 1018.3R
$$

LMZ867-665-643>646-241000-
LAKE MICHIGAN

STATION/POSITION TIME  TEMP    WIND        PRES    WAVE
                       AIR SEA DIR/SP/G            HT/PER
                 (UTC) (F)     (DEG/KT/KT) (MB)    (FT/S)
N MID LAKE BUOY  0850   41 37  170/ 10/ 12 1020.5S   1
NORTHPORT PIER   0840   49     140/  3/  5 1020.3S
KEWAUNEE LAKESHO 0842   53     170/  4/  4 1020.2R
SHEBOYGAN LAKESH 0900   60     230/  3/  3 1021.0S
PORT WASHINGTON  0840   53     160/  2/  3 1022.4R
ATWATER BUOY     0807   53 48  140/  4/  4 1021.5    0
MILWAUKEE LAKESH 0830   59     200/  3/  4   N/A
S MID LAKE BUOY  0850   51 39  130/  8/  8 1022.2R   0
KENOSHA   LAKESH 0900   58                 1021.7
$$

TC  - TEMPERATURE IN CELSIUS
VSB - VISIBILITY IN STATUTE MILES
WCI - WIND CHILL INDEX
HX  - HEAT INDEX





USA.gov is the U.S. government's official web portal to all federal, state and local government web resources and services.